SCP
1 1 1 1 1 1 1 1 1 1 0 0 0 0 0 0 0 0 0 0 0 0 0 0 0 0 0 0 0 0 0 0 0 0 0 0 0 0
1 1 1 1 1 1 1 1 1 1 1 0 0 0 0 0 0 0 0 0 0 0 0 0 0 0 0 0 0 0 0 0 0 0 0 0 0 0
1 1 1 1 1 1 1 1 1 1 1 0 0 0 1 0 0 0 0 0 0 0 0 0 0 0 0 0 0 0 0 0 0 0 0 0 0 0
1 1 1 1 1 1 1 1 1 1 1 0 0 1 1 1 1 1 0 0 0 0 0 0 0 0 0 0 0 0 0 0 0 0 0 0 0 0
1 1 1 1 1 1 1 1 1 1 1 1 1 1 1 1 1 1 0 0 0 0 0 0 0 0 0 0 0 0 0 0 0 0 0 0 0 0
1 1 1 1 1 1 1 1 1 1 1 1 1 1 1 1 1 1 0 0 0 0 0 0 0 0 0 0 0 0 0 0 0 0 0 0 0 0
1 1 1 1 1 0 0 0 0 0 1 1 0 0 0 0 0 0 0 0 0 0 0 0 0 0 0 0 0 0 0 0 0 0 0 0 0 0
1 1 1 0 0 0 0 0 0 0 0 0 0 0 0 0 0 0 0 0 0 0 0 0 0 0 0 0 0 0 0 0 0 0 0 0 0 0
1 1 1 0 0 0 0 0 0 0 0 0 0 0 0 0 0 0 0 0 0 0 0 0 0 0 0 0 0 0 0 0 0 0 0 0 0 0
1 1 1 0 0 0 0 0 0 0 0 0 0 0 0 0 0 0 0 0 0 0 0 0 0 0 0 0 0 0 0 0 0 0 0 0 0 0
1 1 1 0 0 0 0 0 0 0 0 0 0 0 0 0 0 0 0 0 0 0 0 0 0 0 0 0 0 0 0 0 0 0 0 0 0 0
1 1 0 0 0 0 0 0 0 0 0 0 0 0 0 0 0 0 0 0 0 0 0 0 0 0 0 0 0 0 0 0 0 0 0 0 0 0
1 1 0 0 0 0 0 0 0 0 0 0 0 0 0 0 0 0 0 0 0 0 0 0 0 0 0 0 0 0 0 0 0 0 0 0 0 0
1 0 0 0 0 0 0 0 0 0 0 0 0 0 0 0 0 0 0 0 0 0 0 0 0 0 0 0 0 0 0 0 0 0 0 0 0 0
0 0 0 0 0 0 0 0 0 0 0 0 0 0 0 0 0 0 0 0 0 0 0 0 0 0 0 0 0 0 0 0 0 0 0 0 0 0
0 0 0 0 0 0 0 0 0 0 0 0 0 0 0 0 0 0 0 0 0 0 0 0 0 0 0 0 0 0 0 0 0 0 0 0 0 0
0 0 0 0 0 0 0 0 0 0 0 0 0 0 0 0 0 0 0 0 0 0 0 0 0 0 0 0 0 0 0 0 0 0 0 0 0 0
0 0 0 0 0 0 0 0 0 0 0 0 0 0 0 0 0 0 0 0 0 0 0 0 0 0 0 0 0 0 0 0 0 0 0 0 0 0
0 0 0 0 0 0 0 0 0 0 0 0 0 0 0 0 0 0 0 0 0 0 0 0 0 0 0 0 0 0 0 0 0 0 0 0 0 0
0 0 0 0 0 0 0 0 0 0 0 0 0 0 0 0 0 0 0 0 0 0 0 0 0 0 0 0 0 0 0 0 0 0 0 0 0 0
0 0 0 0 0 0 0 0 0 0 0 0 0 0 0 0 0 0 0 0 0 0 0 0 0 0 0 0 0 0 0 0 0 0 0 0 0 0
0 0 0 0 0 0 0 0 0 0 0 0 0 0 0 0 0 0 0 0 0 0 0 0 0 0 0 0 0 0 0 0 0 0 0 0 0 0
0 0 0 0 0 0 0 0 0 0 0 0 0 0 0 0 0 0 0 0 0 0 0 0 0 0 0 0 0 0 0 0 0 0 0 0 0 0
Wind_Speed
2 3 2 2 2 2 1 1 2 3 2 2 1 1 1 2 5 4 3 7 7 7 7 7 7 6 6 5 5 5 5 5 5 6 6 7 7 8
2 2 2 2 2 2 2 2 2 2 2 2 1 1 1 1 4 3 3 7 8 7 7 7 6 6 5 5 4 4 4 5 5 6 6 6 6 7
2 2 2 2 2 2 2 1 2 2 3 3 1 1 1 1 1 2 3 4 4 8 8 8 7 6 6 5 5 5 5 5 6 6 6 6 6 7
2 2 2 2 2 3 2 2 2 2 2 4 2 2 2 1 2 2 2 3 3 7 9 9 8 7 6 6 5 5 5 5 5 5 6 6 6 7
2 2 3 3 2 2 3 3 3 3 2 3 3 2 2 2 2 2 2 1 3 4 7 8 8 7 6 6 6 5 5 5 5 5 5 5 5 5
3 2 3 2 2 3 3 3 3 3 3 3 3 2 1 2 2 2 2 1 2 2 2 4 6 7 6 6 6 5 5 5 5 5 5 5 5 5
3 2 2 1 1 2 3 2 3 3 3 2 2 2 2 2 2 2 2 2 2 2 1 2 3 4 4 6 6 6 6 6 6 6 5 5 5 5
3 2 2 2 2 3 2 2 3 3 3 2 2 2 2 2 2 3 2 2 2 1 1 3 2 3 3 4 6 7 7 7 6 6 5 5 5 5
3 2 4 2 1 1 1 2 2 3 4 3 2 2 2 2 2 3 2 3 3 3 2 3 2 2 2 3 7 8 8 8 7 7 6 6 5 5
3 3 2 1 2 1 1 1 1 2 2 2 1 2 2 2 3 4 4 4 4 3 2 2 2 2 2 2 6 7 8 9 8 8 7 6 6 5
2 1 1 1 0 1 1 1 1 1 1 0 1 1 2 3 3 2 2 2 3 2 1 1 2 2 2 2 3 6 7 8 9 8 8 7 6 5
1 1 1 2 2 1 1 1 1 1 1 1 1 2 2 3 3 2 2 2 2 2 1 1 2 1 2 1 1 2 3 6 7 8 8 7 6 3
1 1 1 2 2 1 1 0 1 2 2 2 1 2 2 2 1 2 2 2 2 2 1 1 1 1 1 2 1 2 2 2 3 4 7 7 7 6
1 0 1 2 2 2 1 1 1 2 2 1 1 1 1 1 1 2 2 2 3 3 3 2 1 1 2 2 2 1 1 2 2 3 3 5 6 7
1 2 2 2 1 1 2 2 2 2 1 1 2 2 1 1 1 1 2 2 3 4 3 3 2 2 2 2 2 2 2 2 2 2 3 3 4 4
1 2 2 1 1 0 0 1 1 1 1 1 2 1 1 1 1 1 1 2 2 2 3 3 2 2 2 3 2 2 2 2 2 2 2 2 3 4
1 1 1 1 1 1 1 0 0 0 1 1 1 1 1 1 2 2 2 2 2 2 2 2 2 3 3 3 2 2 2 2 2 2 2 2 2 3
1 1 1 1 1 1 1 1 1 1 1 1 1 1 1 2 2 2 2 2 2 2 2 2 1 1 2 2 2 3 2 2 2 2 2 3 3 3
1 2 1 1 1 1 1 1 1 0 1 1 1 1 1 2 2 2 1 2 2 2 2 1 1 1 3 3 3 3 3 2 2 2 3 3 3 3
2 2 1 1 1 1 1 1 1 1 1 1 1 2 2 2 2 2 1 2 3 3 3 2 1 1 3 4 3 3 4 3 2 2 2 2 1 1
2 1 1 1 0 0 0 0 1 1 1 2 2 2 2 2 2 3 2 2 3 2 3 3 3 4 3 2 2 2 3 3 3 2 2 2 2 2
1 1 0 0 1 1 1 1 1 1 1 2 2 2 2 2 3 3 3 2 2 3 3 3 2 2 2 2 3 3 3 2 2 2 3 4 3 3
1 0 0 0 0 0 0 1 1 1 1 2 2 2 3 3 3 3 3 3 2 3 3 3 2 2 3 3 3 3 4 3 2 2 2 3 4 5
Wind_Direction
238 244 255 266 268 261 246 235 245 260 267 256 259 228 186 152 159 186 175 180 188 194 201 206 210 216 221 226 236 240 245 247 246 245 241 242 244 244
249 263 273 275 279 262 244 234 241 252 264 264 272 279 264 214 171 191 188 174 184 185 194 200 202 210 215 218 223 229 236 240 241 240 238 238 241 245
256 254 274 302 303 303 297 270 250 234 253 265 250 269 271 257 200 215 198 182 186 190 193 197 200 205 214 221 226 230 234 236 236 235 234 236 239 242
243 249 258 263 273 297 297 283 271 245 245 265 261 263 259 246 236 247 232 212 199 194 198 197 199 205 213 221 225 226 228 231 234 235 236 237 241 244
234 249 264 273 272 278 281 280 279 274 255 258 260 244 247 256 254 261 256 259 239 205 195 196 201 203 209 213 215 217 220 223 226 228 233 236 237 239
236 244 256 258 270 277 271 267 268 276 267 263 266 259 258 269 259 242 262 255 261 244 199 192 194 196 201 203 209 212 215 218 222 224 228 232 234 235
241 240 255 268 302 283 283 298 289 279 274 266 264 281 290 301 291 287 267 260 258 253 207 204 191 197 204 207 213 212 210 212 215 219 222 224 226 226
243 237 235 220 214 222 252 282 282 271 274 277 267 266 269 286 304 304 305 296 279 269 266 258 203 207 201 195 199 202 206 209 211 213 215 218 218 215
235 245 266 261 218 226 256 267 286 271 247 250 270 280 280 287 292 295 292 278 265 258 253 260 236 227 215 187 191 200 205 207 209 210 213 215 216 217
227 234 241 254 280 276 264 283 299 303 277 243 254 287 302 299 275 260 261 266 264 262 233 253 253 247 235 195 201 202 204 206 207 210 211 210 211 217
226 234 216 189 351 337 236 242 256 261 277 342 360 316 314 316 309 294 280 274 279 273 247 247 271 273 253 220 208 207 209 209 209 210 211 210 208 207
207 191 153 146 147 152 229 244 267 295 314 284 303 286 271 272 274 270 287 287 290 288 313 267 264 276 281 262 194 203 217 219 215 212 209 208 201 197
228 210 174 153 144 151 186 230 254 291 286 259 242 244 255 257 254 253 253 269 281 284 309 294 279 275 263 281 273 221 198 204 200 211 211 207 200 193
255 148 134 166 167 178 183 232 290 295 279 291 282 263 244 249 254 256 250 249 248 256 273 272 259 267 276 285 284 272 229 211 202 198 198 197 205 210
41 94 115 135 158 164 191 241 267 265 270 284 289 292 283 269 263 256 256 253 261 266 255 231 237 260 261 268 271 275 273 242 204 198 195 190 197 192
111 115 117 150 193 104 188 235 244 295 310 305 312 316 320 317 287 274 269 270 268 271 258 241 233 238 258 271 270 268 261 252 228 211 201 207 203 194
158 165 144 134 157 156 146 185 259 284 307 308 310 312 311 311 311 302 279 275 277 289 295 273 246 231 232 246 272 274 274 269 239 215 206 217 216 202
142 187 191 187 182 182 181 216 248 262 288 304 316 317 314 308 307 312 309 295 288 290 290 288 288 284 282 279 245 256 265 268 266 240 216 215 225 217
169 223 225 205 184 210 217 251 269 256 245 281 299 307 305 308 304 299 307 312 308 302 298 293 298 293 290 288 280 253 255 257 257 246 238 233 229 218
212 223 219 209 197 210 232 253 283 299 308 296 305 315 318 318 316 310 303 310 310 308 307 304 305 293 274 277 281 287 275 253 242 255 256 262 260 234
218 222 228 240 244 200 88 317 310 331 349 333 325 327 326 319 317 315 309 305 299 301 303 299 294 293 282 289 290 287 287 285 254 233 238 248 253 239
227 222 210 345 8 25 11 340 332 344 347 338 334 329 326 324 319 314 311 305 297 302 304 298 297 303 298 294 297 299 297 301 300 279 262 243 223 225
235 255 173 146 67 238 317 319 333 349 353 340 330 324 325 322 316 313 315 311 304 302 304 300 300 301 295 292 298 304 312 314 309 305 295 289 250 242